TimeCDT,TemperatureF,Dew PointF,Humidity,Sea Level PressureIn,VisibilityMPH,Wind Direction,Wind SpeedMPH,Gust SpeedMPH,PrecipitationIn,Events,Conditions,WindDirDegrees,DateUTC
12:53 AM,68.0,64.9,90,29.88,7.0,Calm,Calm,-,N/A,,Clear,0,2013-04-30 05:53:00
1:53 AM,66.9,64.9,93,29.88,7.0,Calm,Calm,-,N/A,,Clear,0,2013-04-30 06:53:00
2:53 AM,66.9,64.9,93,29.87,5.0,Calm,Calm,-,N/A,,Clear,0,2013-04-30 07:53:00
3:53 AM,66.0,64.9,96,29.86,5.0,Calm,Calm,-,N/A,,Partly Cloudy,0,2013-04-30 08:53:00
4:53 AM,66.0,64.0,93,29.86,4.0,Calm,Calm,-,0.01,,Clear,0,2013-04-30 09:53:00
5:18 AM,66.2,64.4,94,29.86,4.0,Calm,Calm,-,N/A,,Scattered Clouds,0,2013-04-30 10:18:00
5:27 AM,66.2,64.4,94,29.87,4.0,Calm,Calm,-,N/A,,Mostly Cloudy,0,2013-04-30 10:27:00
5:53 AM,66.9,64.9,93,29.86,2.5,East,3.5,-,N/A,,Overcast,90,2013-04-30 10:53:00
6:03 AM,66.2,64.4,94,29.86,1.2,East,3.5,-,N/A,,Overcast,80,2013-04-30 11:03:00
6:17 AM,66.2,66.2,100,29.86,0.5,East,3.5,-,N/A,Fog,Fog,90,2013-04-30 11:17:00
6:33 AM,66.2,66.2,100,29.86,0.2,Calm,Calm,-,N/A,Fog,Fog,0,2013-04-30 11:33:00
6:53 AM,66.9,66.0,97,29.86,0.2,ENE,3.5,-,N/A,Fog,Fog,70,2013-04-30 11:53:00
7:27 AM,68.0,66.2,94,29.87,0.5,Calm,Calm,-,N/A,Fog,Fog,0,2013-04-30 12:27:00
7:39 AM,68.0,66.2,94,29.87,1.5,ENE,3.5,-,N/A,,Overcast,70,2013-04-30 12:39:00
7:49 AM,68.0,66.2,94,29.87,2.0,ENE,3.5,-,N/A,,Overcast,70,2013-04-30 12:49:00
7:53 AM,68.0,66.9,96,29.88,2.0,ENE,3.5,-,N/A,,Overcast,60,2013-04-30 12:53:00
8:10 AM,68.0,66.2,94,29.88,3.0,Calm,Calm,-,N/A,,Overcast,0,2013-04-30 13:10:00
8:53 AM,69.1,66.9,93,29.88,3.0,East,3.5,-,N/A,,Overcast,90,2013-04-30 13:53:00
9:53 AM,70.0,68.0,93,29.89,4.0,Calm,Calm,-,N/A,,Overcast,0,2013-04-30 14:53:00
10:53 AM,71.1,68.0,90,29.89,6.0,East,3.5,-,N/A,,Overcast,100,2013-04-30 15:53:00
11:53 AM,73.0,68.0,84,29.87,9.0,East,8.1,-,N/A,,Overcast,100,2013-04-30 16:53:00
12:03 PM,73.4,68.0,83,29.87,10.0,East,6.9,-,N/A,,Overcast,100,2013-04-30 17:03:00
12:53 PM,73.9,68.0,82,29.85,10.0,ESE,8.1,-,N/A,,Mostly Cloudy,110,2013-04-30 17:53:00
1:10 PM,73.4,68.0,83,29.84,10.0,Variable,4.6,-,N/A,,Overcast,0,2013-04-30 18:10:00
1:41 PM,75.2,68.0,78,29.84,10.0,East,5.8,-,N/A,,Mostly Cloudy,90,2013-04-30 18:41:00
1:53 PM,75.0,68.0,79,29.84,10.0,East,6.9,16.1,N/A,,Overcast,80,2013-04-30 18:53:00
2:00 PM,75.2,68.0,78,29.84,10.0,East,9.2,-,N/A,,Mostly Cloudy,80,2013-04-30 19:00:00
2:53 PM,75.0,68.0,79,29.84,10.0,ENE,8.1,-,N/A,,Overcast,60,2013-04-30 19:53:00
3:28 PM,75.2,68.0,78,29.82,10.0,ENE,4.6,-,N/A,,Overcast,60,2013-04-30 20:28:00
3:49 PM,71.6,66.2,83,29.83,1.8,ESE,6.9,17.3,0.22,Rain,Heavy Rain,110,2013-04-30 20:49:00
3:53 PM,71.1,68.0,90,29.83,4.0,ESE,6.9,17.3,0.30,Rain,Heavy Rain,120,2013-04-30 20:53:00
3:56 PM,71.6,68.0,88,29.83,1.0,ESE,5.8,-,0.02,Rain,Heavy Rain,120,2013-04-30 20:56:00
4:07 PM,71.6,68.0,88,29.83,3.0,Calm,Calm,-,0.07,Rain,Rain,0,2013-04-30 21:07:00
4:53 PM,71.1,66.9,87,29.82,10.0,East,3.5,-,0.08,,Overcast,100,2013-04-30 21:53:00
5:53 PM,71.1,66.9,87,29.82,10.0,Calm,Calm,-,N/A,,Mostly Cloudy,0,2013-04-30 22:53:00
6:53 PM,72.0,64.0,76,29.82,10.0,Variable,3.5,-,N/A,,Scattered Clouds,0,2013-04-30 23:53:00
7:53 PM,70.0,63.0,78,29.83,10.0,South,6.9,-,N/A,,Clear,180,2013-05-01 00:53:00
8:53 PM,66.0,63.0,90,29.85,10.0,NNE,4.6,-,N/A,,Clear,30,2013-05-01 01:53:00
9:53 PM,68.0,64.0,87,29.87,10.0,East,3.5,-,N/A,,Mostly Cloudy,80,2013-05-01 02:53:00
10:53 PM,66.9,64.0,90,29.88,10.0,Calm,Calm,-,N/A,,Mostly Cloudy,0,2013-05-01 03:53:00
11:17 PM,66.2,64.4,94,29.87,10.0,Calm,Calm,-,N/A,,Overcast,0,2013-05-01 04:17:00
11:53 PM,66.9,64.9,93,29.87,10.0,Calm,Calm,-,N/A,,Overcast,0,2013-05-01 04:53:00